Vorticity
15 7 -13 5 -1 11 -4 2 5 3 1 1 12 -6 7 -2 -1 3 0 13 6 8 13 14 12 11 2 12 2 8 -2 8 9 2 4 9 13 12 7 6 5 5 16 12
1 -8 7 12 6 6 1 6 7 4 5 -8 5 5 26 6 8 7 7 5 5 5 4 10 1 24 11 2 4 -2 -2 6 10 8 4 5 8 4 4 4 5 4 11 12
9 -14 16 5 8 6 6 3 4 3 6 5 0 12 5 2 7 5 2 7 -0 -8 6 7 6 11 2 18 8 -4 -5 6 4 12 3 4 7 2 3 7 5 4 9 10
11 6 4 5 -3 8 4 6 5 3 6 5 -1 10 19 13 11 8 4 15 24 20 1 7 1 11 7 10 3 2 8 14 -1 13 6 6 4 -0 1 3 4 4 6 8
7 18 3 6 9 4 -6 13 9 -2 14 6 11 -3 6 3 11 7 19 26 1 24 9 17 8 6 11 5 18 10 11 13 7 10 8 3 6 2 2 2 3 6 5 8
10 1 21 7 -4 11 6 1 0 12 10 41 6 0 14 5 5 9 5 7 -2 10 7 2 33 9 11 9 9 6 13 10 17 7 4 5 3 5 5 4 3 6 7 7
13 8 10 8 3 11 3 4 44 31 38 -4 13 19 -7 -6 6 42 54 15 38 3 39 4 -0 15 10 10 7 4 10 22 17 9 7 5 5 7 4 5 6 4 7 5
22 57 3 -2 21 -1 2 12 -54 16 19 2 25 3 4 2 2 0 -15 -11 -3 28 -1 7 9 15 9 9 10 3 12 20 11 12 10 3 6 6 4 4 9 3 6 6
27 12 -20 33 16 -3 24 -5 18 5 11 20 -19 38 43 43 22 8 10 9 16 10 -11 0 12 8 10 7 8 14 4 18 16 7 6 5 9 8 8 13 5 3 4 9
-1 14 4 -7 11 1 37 13 19 2 41 10 38 -8 -11 -8 0 11 -4 36 6 2 12 21 35 9 13 15 -2 9 -1 14 25 -0 4 9 10 9 7 2 18 8 -0 10
29 7 9 3 13 5 22 20 -14 30 -44 9 23 39 8 2 -17 7 -0 2 18 17 17 -3 14 14 8 -4 -2 22 1 17 11 18 9 7 5 5 16 -3 33 7 -1 9
3 13 66 -10 24 8 -0 -3 47 -27 25 38 -70 19 -76 13 9 14 -25 22 66 16 -8 13 4 8 2 1 8 19 14 17 24 18 19 7 2 13 4 37 -26 23 -1 9
-19 26 32 63 56 20 10 24 -5 -6 17 6 -30 49 24 12 -6 56 29 39 15 16 14 30 3 9 -5 6 23 20 18 11 21 10 15 15 8 4 32 -3 7 -5 10 6
0 16 2 -41 -33 -10 36 23 28 5 23 16 3 9 -0 -21 -13 -22 -9 31 21 9 1 11 -12 -2 10 16 8 14 11 13 12 15 16 8 19 -5 13 1 23 -6 22 4
1 -2 5 2 -5 25 0 15 9 50 -4 -24 21 -3 8 21 10 13 6 15 -1 -7 3 7 5 5 12 16 11 8 13 13 16 17 12 11 8 12 8 19 -8 18 -3 7
19 26 13 3 34 3 15 30 7 11 26 3 10 14 21 -10 5 4 -8 -37 21 11 3 3 13 3 24 -1 14 -1 -16 13 12 23 15 15 7 3 9 6 7 11 5 4
6 16 17 10 4 -1 69 48 22 4 1 20 10 5 -3 19 30 -2 15 15 -3 -33 16 22 10 1 13 -5 8 11 -11 21 19 25 22 5 1 10 11 2 14 3 3 7
21 10 -0 -1 29 27 3 50 17 49 3 -7 23 2 30 14 -33 4 -6 13 17 25 14 16 7 3 11 -0 12 -1 4 12 20 28 18 12 8 12 8 10 8 3 5 7
-2 -2 2 -3 5 -20 -0 23 52 10 37 33 -4 6 1 13 33 16 7 6 14 1 5 1 18 6 11 16 -3 9 15 8 27 1 6 18 24 18 15 10 6 4 7 -6
49 17 -5 -38 -14 1 -6 25 -18 6 3 52 8 33 30 -5 -1 20 -3 -13 -6 5 27 35 23 -6 27 4 18 19 14 11 2 0 7 14 25 19 14 9 6 4 -4 11
4 29 32 16 13 26 4 35 16 37 -9 -27 21 53 14 -19 35 36 20 14 24 11 -14 -13 39 19 20 -3 10 12 11 10 8 -2 4 16 21 18 14 6 1 1 9 16
25 19 2 2 9 23 13 36 22 3 -1 41 8 32 -58 -2 24 58 28 31 15 17 17 34 -13 -5 8 9 6 10 23 17 1 3 13 20 22 11 6 -4 9 12 15 8
18 -10 -4 -5 -26 -19 -25 -25 19 -18 2 -18 42 34 41 22 25 26 12 28 18 13 21 20 33 3 24 13 2 8 21 7 7 10 20 17 21 10 8 9 13 8 11 19
0 -17 -9 5 37 26 16 29 30 5 -11 -8 24 -12 5 6 12 -0 2 -1 20 1 -6 17 21 17 2 6 6 1 9 12 8 18 16 15 17 13 7 20 11 -1 25 13
7 22 27 18 18 21 22 17 11 31 22 -8 0 1 10 -8 35 18 19 8 16 18 12 20 16 7 4 17 7 3 15 18 17 16 19 26 22 16 14 3 9 23 13 7
13 7 -1 6 9 -9 -19 -11 7 13 23 51 0 -15 -7 9 4 2 12 16 -1 14 9 11 10 13 39 24 17 8 16 19 16 21 23 29 13 0 -7 1 28 16 8 8
Height
3109 3113 3106 3110 3117 3120 3123 3122 3120 3121 3124 3123 3122 3122 3125 3126 3127 3127 3127 3129 3130 3130 3132 3134 3134 3135 3137 3133 3127 3129 3134 3139 3140 3142 3143 3144 3144 3145 3147 3148 3149 3149 3149 3150
3107 3096 3099 3107 3114 3116 3117 3116 3113 3117 3117 3118 3115 3114 3116 3118 3119 3121 3122 3122 3123 3123 3126 3127 3128 3128 3129 3127 3122 3121 3124 3131 3134 3137 3138 3140 3140 3142 3143 3144 3145 3145 3145 3145
3094 3085 3101 3103 3107 3109 3108 3107 3110 3113 3115 3113 3110 3105 3108 3111 3112 3114 3114 3115 3116 3118 3118 3119 3120 3121 3121 3120 3118 3113 3116 3122 3127 3129 3132 3133 3135 3136 3138 3140 3140 3141 3141 3140
3084 3092 3095 3098 3099 3102 3098 3104 3106 3107 3109 3105 3109 3095 3095 3101 3102 3102 3104 3104 3105 3108 3110 3111 3114 3111 3110 3112 3113 3110 3108 3113 3119 3121 3125 3126 3130 3131 3133 3135 3135 3136 3136 3137
3075 3080 3086 3086 3088 3093 3089 3100 3098 3098 3098 3101 3094 3096 3079 3092 3091 3093 3094 3093 3096 3098 3100 3103 3104 3105 3100 3102 3104 3105 3102 3104 3110 3114 3117 3120 3123 3124 3126 3128 3129 3130 3131 3132
3069 3073 3076 3075 3083 3087 3090 3091 3089 3089 3089 3085 3071 3090 3065 3079 3083 3085 3086 3087 3087 3091 3093 3095 3096 3099 3092 3092 3095 3096 3094 3095 3103 3106 3108 3112 3116 3117 3119 3121 3123 3125 3125 3126
3059 3060 3063 3073 3074 3077 3081 3082 3076 3077 3074 3063 3069 3079 3061 3068 3073 3076 3075 3079 3078 3081 3083 3086 3088 3091 3090 3083 3085 3086 3087 3087 3092 3097 3100 3105 3108 3110 3111 3114 3117 3117 3118 3120
3056 3050 3053 3057 3057 3062 3068 3070 3067 3064 3060 3057 3063 3065 3048 3062 3066 3066 3070 3071 3068 3071 3076 3078 3080 3081 3083 3077 3077 3075 3080 3081 3083 3086 3092 3097 3099 3101 3103 3107 3109 3110 3111 3113
3051 3042 3051 3049 3053 3061 3049 3057 3063 3059 3060 3060 3053 3048 3047 3053 3053 3057 3061 3062 3060 3063 3067 3070 3072 3072 3074 3069 3069 3065 3070 3074 3076 3080 3082 3088 3090 3093 3097 3098 3100 3102 3103 3106
3043 3039 3041 3039 3048 3044 3045 3052 3055 3049 3056 3056 3051 3040 3039 3049 3045 3051 3053 3052 3053 3054 3058 3060 3062 3062 3063 3058 3062 3058 3063 3065 3068 3072 3075 3081 3083 3085 3088 3089 3092 3094 3096 3098
3040 3037 3025 3039 3029 3037 3041 3036 3042 3043 3053 3047 3047 3032 3033 3041 3038 3041 3045 3044 3041 3043 3049 3052 3054 3053 3053 3048 3051 3051 3055 3057 3060 3066 3069 3072 3074 3076 3078 3080 3085 3088 3088 3090
3029 3024 3021 3012 3022 3024 3027 3028 3031 3027 3032 3031 3032 3018 3026 3027 3030 3030 3033 3034 3033 3035 3040 3043 3046 3045 3042 3042 3043 3044 3047 3051 3053 3057 3060 3063 3065 3067 3071 3073 3075 3081 3080 3082
3023 3021 3018 3006 3013 3014 3012 3013 3017 3018 3018 3017 3022 3019 3013 3025 3026 3024 3024 3031 3029 3030 3033 3037 3036 3036 3034 3034 3035 3037 3040 3042 3044 3046 3050 3052 3056 3059 3062 3064 3068 3070 3074 3075
3023 3017 3014 3011 3006 3009 3006 3005 3007 3010 3007 3008 3008 3012 2998 3013 3021 3018 3019 3024 3023 3024 3027 3029 3029 3030 3027 3026 3027 3030 3031 3034 3035 3037 3039 3043 3047 3051 3055 3057 3061 3061 3065 3067
3015 3007 3010 3006 3000 3001 2999 2999 2994 2994 2996 2997 3000 3003 2990 3005 3014 3016 3016 3019 3020 3020 3021 3022 3020 3020 3019 3018 3021 3023 3026 3025 3026 3028 3031 3034 3037 3040 3045 3050 3050 3055 3055 3058
3009 3003 2996 2990 2995 2991 2987 2990 2988 2987 2988 2990 2991 2989 2993 2993 3006 3006 3006 3011 3013 3012 3012 3013 3012 3012 3011 3012 3012 3014 3018 3019 3018 3020 3023 3026 3028 3032 3037 3040 3043 3045 3047 3049
2998 2998 2996 2988 2989 2984 2981 2981 2982 2979 2980 2981 2979 2981 2982 2989 2991 2993 2999 2999 3000 3004 3002 3001 3001 3003 3002 3004 3005 3004 3007 3008 3009 3011 3014 3018 3019 3025 3029 3032 3033 3035 3038 3040
2990 2991 2987 2985 2988 2979 2973 2977 2977 2971 2965 2971 2974 2971 2965 2976 2979 2984 2989 2989 2989 2992 2992 2990 2992 2994 2993 2997 2995 2996 2994 2999 3000 3002 3004 3008 3011 3016 3019 3022 3024 3026 3029 3030
2981 2981 2976 2978 2970 2963 2958 2967 2971 2968 2959 2963 2964 2962 2959 2967 2971 2973 2976 2979 2980 2983 2985 2980 2978 2984 2983 2982 2986 2988 2986 2988 2991 2993 2995 2999 3002 3008 3010 3012 3015 3016 3018 3017
2968 2971 2970 2964 2965 2958 2946 2956 2962 2961 2948 2945 2954 2952 2949 2960 2961 2953 2956 2966 2966 2970 2974 2974 2970 2971 2968 2968 2974 2976 2978 2980 2982 2982 2986 2989 2993 2999 3001 3003 3004 3006 3005 3011
2962 2960 2959 2955 2956 2946 2940 2947 2953 2953 2941 2942 2944 2941 2941 2945 2945 2937 2953 2953 2955 2957 2959 2963 2960 2959 2954 2956 2964 2967 2969 2970 2972 2972 2976 2980 2985 2988 2990 2992 2993 2993 3000 3003
2952 2953 2951 2952 2946 2936 2937 2940 2945 2942 2934 2933 2933 2929 2928 2933 2932 2926 2934 2936 2941 2942 2942 2947 2951 2946 2946 2950 2953 2955 2958 2958 2960 2963 2968 2972 2974 2976 2977 2979 2983 2989 2993 2997
2939 2939 2939 2940 2925 2927 2931 2929 2934 2931 2927 2926 2923 2921 2913 2924 2923 2921 2922 2925 2928 2931 2935 2935 2937 2936 2935 2938 2942 2946 2945 2949 2953 2956 2959 2961 2962 2965 2967 2974 2978 2982 2987 2990
2927 2929 2928 2924 2916 2917 2921 2920 2921 2924 2919 2918 2913 2914 2914 2914 2917 2916 2917 2918 2919 2924 2926 2926 2927 2928 2927 2928 2930 2932 2938 2940 2944 2945 2948 2951 2953 2957 2963 2968 2972 2976 2980 2985
2917 2919 2916 2911 2909 2913 2910 2910 2911 2910 2909 2910 2906 2905 2902 2902 2904 2907 2909 2909 2910 2914 2917 2918 2918 2918 2919 2918 2920 2924 2927 2930 2934 2936 2940 2944 2949 2954 2958 2963 2967 2971 2976 2981
2905 2906 2905 2900 2904 2904 2901 2903 2901 2897 2896 2897 2900 2899 2899 2900 2898 2901 2902 2903 2902 2903 2906 2907 2907 2908 2908 2909 2911 2914 2917 2920 2925 2930 2934 2940 2946 2951 2955 2959 2962 2965 2971 2976